STARLINK-11190 [DTC] (60911 NORAD) Tracking and Keplerian Element Data

This shows tracking and keplerian element data for the satellite.

Feedback or suggestion? Click here.




ElementValue
Catalog60911
NameSTARLINK-11190 [DTC]
Epoch Orbit794
Epoch Day286.80882085
Epoch Year2024
RAAN140.0906
Inclination53.1582
Eccentricity0.0001058
Argument of Perigee88.3305
Mean Anonmoly271.7837
Mean Motion15.76739064
Decay Rate3.195E-05
L11 60911U 24154J 24286.80882085 .00003195 00000+0 23502-4 0 9997
L22 60911 53.1582 140.0906 0001058 88.3305 271.7837 15.76739064 7947



Live tracking and technical data element details for STARLINK-11190 [DTC] (NORAD 60911). STARLINK-11190 [DTC] can be tracked NOW for your location showing map with azimuth and elevation plus other details from your city location.







IsCatalogInMostPopularTable: catalog: 60911, numindb: 8
Update: records affected: 1



GetName: 60911 STARLINK-11190 [DTC]

Hit Count: updated at: Fri, 06 Dec 2024 10:59:11 GMT